KB2UHF-8 Weather Reports


time (UTC)temp
C
wind
direction
speed
KPH
gust
KPH
rain 1hr
cm
rain 24hr
cm
rain mn
cm
humidity
%
barometer
mb
20260502194516 13 270 16.1 27.4 0.00 0.00 0.00 33 1016.3
20260502193515 13 270 16.1 29.0 0.00 0.00 0.00 34 1016.3
20260502192516 13 270 11.3 22.5 0.00 0.00 0.00 34 1016.5
20260502191515 13 270 11.3 19.3 0.00 0.00 0.00 33 1016.7
20260502190516 13 270 16.1 33.8 0.00 0.00 0.00 35 1016.8
20260502185516 13 248 16.1 30.6 0.00 0.00 0.00 35 1017.0
20260502184517 13 293 12.9 24.1 0.00 0.00 0.00 38 1016.9
20260502183516 13 270 11.3 19.3 0.00 0.00 0.00 37 1017.3
20260502182515 13 270 11.3 20.9 0.00 0.00 0.00 36 1017.4
20260502181515 12 293 9.7 19.3 0.00 0.00 0.00 36 1017.5
20260502180536 12 270 14.5 25.7 0.00 0.00 0.00 35 1017.7
20260502170516 11 270 9.7 20.9 0.00 0.00 0.00 39 1018.4
20260502163515 12 270 12.9 27.4 0.00 0.00 0.00 40 1018.4
20260502162515 12 270 12.9 20.9 0.00 0.00 0.00 38 1018.7
20260502161515 11 315 14.5 24.1 0.00 0.00 0.00 41 1018.8
20260502160515 11 293 14.5 25.7 0.00 0.00 0.00 40 1018.9
20260502151536 10 270 11.3 22.5 0.00 0.00 0.00 43 1019.1
20260502150535 10 270 11.3 20.9 0.00 0.00 0.00 44 1019.1
20260502130517 4 248 4.8 9.7 0.00 0.00 0.00 71 1019.4
20260502123517 3 248 3.2 8.0 0.00 0.00 0.00 76 1019.2
20260502122519 3 225 4.8 9.7 0.00 0.00 0.00 74 1019.1
20260502121519 2 248 3.2 6.4 0.00 0.00 0.00 76 1019.2
20260502120517 2 248 3.2 6.4 0.00 0.00 0.00 76 1019.3
20260502115517 1 248 4.8 8.0 0.00 0.00 0.00 82 1019.2
20260502114517 0 248 1.6 4.8 0.00 0.00 0.00 85 1018.9
20260502113517 0 0.0 1.6 0.00 0.00 0.00 83 1018.9
20260502112537 0 0.0 0.0 0.00 0.00 0.00 84 1018.8
20260502111517 0 0.0 1.6 0.00 0.00 0.00 84 1018.8
20260502110517 0 68 4.8 6.4 0.00 0.00 0.00 85 1018.7
20260502105517 0 0.0 0.0 0.00 0.00 0.00 84 1018.6
20260502104517 -1 0.0 1.6 0.00 0.00 0.00 84 1018.8
20260502103517 0 248 3.2 4.8 0.00 0.00 0.00 83 1018.7
20260502102517 0 225 1.6 4.8 0.00 0.00 0.00 82 1018.7
20260502101517 0 225 1.6 4.8 0.00 0.00 0.00 79 1018.8
20260502100517 0 0.0 0.0 0.00 0.00 0.00 79 1018.9
20260502091517 1 0.0 0.0 0.00 0.00 0.00 75 1018.8
20260502090517 0 0.0 0.0 0.00 0.00 0.00 75 1019.0
20260502070517 1 0.0 0.0 0.00 0.00 0.00 64 1019.1
20260502065517 1 0.0 0.0 0.00 0.00 0.00 64 1019.1
20260502064537 2 0.0 0.0 0.00 0.00 0.00 64 1019.2
20260502063517 2 0.0 0.0 0.00 0.00 0.00 63 1019.3
20260502062516 2 0.0 0.0 0.00 0.00 0.00 62 1019.2
20260502061516 2 0.0 0.0 0.00 0.00 0.00 60 1019.2
20260502060537 2 0.0 0.0 0.00 0.00 0.00 61 1019.1
20260502055517 2 0.0 0.0 0.00 0.00 0.00 59 1019.2
20260502054517 3 0.0 0.0 0.00 0.00 0.00 59 1019.2
20260502053517 3 0.0 0.0 0.00 0.00 0.00 57 1019.2
20260502052516 3 0.0 0.0 0.00 0.00 0.00 57 1019.2
20260502051518 3 0.0 0.0 0.00 0.00 0.00 57 1019.1
20260502050516 3 0.0 0.0 0.00 0.00 0.00 56 1019.1
20260502045515 3 0.0 3.2 0.00 0.00 0.00 56 1019.1
20260502044515 3 0.0 0.0 0.00 0.00 0.00 56 1019.2
20260502043535 3 90 1.6 3.2 0.00 0.00 0.00 54 1019.2
20260502042515 4 0.0 0.0 0.00 0.00 0.00 52 1019.2
20260502041515 4 0.0 0.0 0.00 0.00 0.00 51 1019.0
20260502040515 5 0.0 0.0 0.00 0.00 0.00 53 1019.1
20260502035517 5 0.0 0.0 0.00 0.00 0.00 49 1019.1
20260502034518 5 0.0 0.0 0.00 0.00 0.00 49 1019.1
20260502033517 6 0.0 0.0 0.00 0.00 0.00 47 1019.2
20260502032517 6 0.0 0.0 0.00 0.00 0.00 47 1019.1
20260502031519 6 0.0 0.0 0.00 0.00 0.00 47 1019.1
20260502030517 6 0.0 0.0 0.00 0.00 0.00 47 1019.1
20260502025517 6 0.0 0.0 0.00 0.00 0.00 47 1019.1
20260502024517 6 0.0 0.0 0.00 0.00 0.00 47 1018.9
20260502023517 6 0.0 0.0 0.00 0.00 0.00 46 1019.0
20260502022517 6 0.0 0.0 0.00 0.00 0.00 46 1019.0
20260502021517 6 0.0 0.0 0.00 0.00 0.00 46 1018.7
20260502020517 6 68 1.6 8.0 0.00 0.00 0.00 46 1018.6
20260502015537 6 68 3.2 8.0 0.00 0.00 0.00 45 1018.6
20260502014517 7 68 4.8 8.0 0.00 0.00 0.00 45 1018.3
20260502013517 7 68 6.4 12.9 0.00 0.00 0.00 43 1018.3
20260502012537 7 45 3.2 9.7 0.00 0.00 0.00 43 1018.2
20260502011517 7 45 4.8 8.0 0.00 0.00 0.00 43 1018.1
20260502010519 7 45 6.4 14.5 0.00 0.00 0.00 42 1017.9
20260502005517 8 45 4.8 12.9 0.00 0.00 0.00 41 1017.8
20260502004517 8 0 4.8 8.0 0.00 0.00 0.00 42 1017.7
20260502003517 8 0 1.6 4.8 0.00 0.00 0.00 42 1017.6
20260502002517 8 338 4.8 8.0 0.00 0.00 0.00 43 1017.5
20260502001517 8 338 8.0 12.9 0.00 0.00 0.00 41 1017.5
20260502000537 8 0 8.0 16.1 0.00 0.00 0.00 38 1017.5
20260501235537 9 338 6.4 12.9 0.00 0.00 0.00 41 1017.4
20260501234557 8 315 6.4 9.7 0.00 0.00 0.00 39 1017.1
20260501233517 9 315 8.0 16.1 0.00 0.00 0.00 39 1017.2
20260501232537 9 315 11.3 19.3 0.00 0.00 0.00 39 1017.2
20260501231517 10 315 6.4 12.9 0.00 0.00 0.00 40 1017.2
20260501230517 8 338 6.4 12.9 0.00 0.00 0.00 42 1017.1
20260501225517 9 338 9.7 20.9 0.00 0.00 0.00 38 1017.0
20260501224517 10 338 11.3 19.3 0.00 0.00 0.00 38 1017.1
20260501223517 8 338 8.0 14.5 0.00 0.00 0.00 37 1016.8
20260501222537 8 338 9.7 14.5 0.00 0.00 0.00 40 1017.0
20260501221516 10 338 8.0 12.9 0.00 0.00 0.00 40 1017.0
20260501220517 10 0 8.0 14.5 0.00 0.00 0.00 37 1017.0
20260501215516 9 338 6.4 14.5 0.00 0.00 0.00 39 1016.8
20260501214537 9 338 8.0 14.5 0.00 0.00 0.00 41 1016.8
20260501213517 9 338 4.8 9.7 0.00 0.00 0.00 42 1016.9
20260501212517 9 338 9.7 14.5 0.00 0.00 0.00 40 1016.8
20260501211516 10 338 11.3 20.9 0.00 0.00 0.00 39 1016.9
20260501210516 10 270 9.7 24.1 0.00 0.00 0.00 35 1016.7
20260501205518 10 338 11.3 19.3 0.00 0.00 0.00 41 1016.9
20260501204516 9 315 9.7 17.7 0.00 0.00 0.00 41 1016.8
20260501203518 9 338 11.3 17.7 0.00 0.00 0.00 43 1016.8
20260501202517 9 338 9.7 17.7 0.00 0.00 0.00 42 1017.0
20260501201537 10 0 8.0 19.3 0.00 0.00 0.00 40 1016.8
20260501200516 9 0 6.4 11.3 0.00 0.00 0.00 40 1016.8
20260501195516 10 0 8.0 17.7 0.00 0.00 0.00 40 1016.9